www.pogodaiklimat.ru

АРХИВ ПОГОДЫ в Бостоне

Время (UTC), дата Ветер
(напр.,м/с)
 
Видим.   Явления Облачность Т
(С)
Тd
(С)
f
(%)
Тe
(С)
Тes
(С)
Комфортность

P
(гПа)

Po
(гПа)
Тmin
(С)
Tmax
(С)
R
(мм)
SD
(см)
06:54 19.06 ЮЗ  16 км    10/0 2700 м
[средняя] 
+23.0  +22.0  94  +31  +31  очень
душно 
1002.7  1001.9         
07:54 19.06 З   16 км    8/0 3000 м
[средняя] 
+24.0  +22.0  89  +31  +31  очень
душно 
1003.4  1002.6      0.3   
08:54 19.06 СЗ  4
{9} 
16 км    10/5 450 м
[средняя верхняя] 
+23.9  +19.4  76  +29  +29  душно    1003.6         
09:54 19.06 СЗ  7
{11} 
16 км    8/2 750 м
[средняя верхняя] 
+23.0  +17.0  69  +28  +28  душно  1005.4  1004.6         
10:54 19.06 С  9
{13} 
16 км    8/2 750 м
[средняя верхняя] 
+24.4  +16.1  60  +28  +28  душно  1006.2  1005.6  +22.8  +24.4     
11:54 19.06 СЗ  16 км    8/2 1200 м
[средняя верхняя] 
+24.0  +16.0  61  +27  +28  жарко  1006.8  1005.9         
12:54 19.06 СЗ  6
{11} 
16 км    8/2 1500 м
[средняя верхняя] 
+26.0  +14.0  48  +28  +30  жарко  1007.1  1006.3         
13:54 19.06 СЗ  6
{11} 
16 км    5/2 1500 м
[верхняя] 
+26.0  +14.0  48  +28  +31  жарко  1007.1  1006.3         
14:54 19.06 СЗ  7
{11} 
16 км    2/2 1500 м
[верхняя] 
+27.2  +13.3  42  +29  +32  жарко  1007.3  1006.6         
15:54 19.06 СЗ  7
{11} 
16 км    2/2 1500 м
[верхняя] 
+27.8  +11.7  37  +29  +32  жарко  1007.3  1006.6         
16:54 19.06 СЗ  8
{10} 
16 км    2/2 1500 м
[верхняя] 
+27.0  +11.0  37  +28  +30  жарко  1007.5  1006.6  +23.9       
17:54 19.06 СЗ  4
{10} 
16 км    2/2 1500 м
[средняя] 
+28.0  +10.0  32  +28  +38  жарко  1007.5  1006.6         
18:54 19.06 СЗ  8
{10} 
16 км    2/2 1500 м
[средняя] 
+28.3  +10.6  33  +29  +30  жарко  1007.5  1006.6         
19:54 19.06 С  4
{12} 
16 км    2/2 1800 м
[средняя] 
+28.0  +8.0  28  +28  +32  жарко  1007.8  1007.0         
20:54 19.06 СЗ  6
{11} 
16 км    2/2 1800 м
[средняя] 
+27.2  +8.3  30  +27  +29  жарко  1007.9  1007.3         
21:54 19.06 СЗ  16 км    2/0 4200 м
[средняя] 
+26.7  +5.6  26  +26  +27  жарко  1008.7  1008.0         
22:54 19.06 С  16 км    2/0 4200 м
[средняя] 
+26.0  +7.0  30  +26  +26  жарко  1009.2  1008.3  +25.6       
23:54 19.06 С  16 км    5/0 3600 м
[средняя] 
+24.4  +7.2  33  +25  +25  комфорт  1009.8  1009.0         
00:54 20.06 С  16 км    2/0 3600 м
[средняя] 
+23.9  +8.3  37  +24  +24  комфорт  1010.8  1010.0         
01:54 20.06 С  16 км    2/0 6000 м
[средняя] 
+22.2  +8.3  41  +23  +23  комфорт  1011.4  1010.7         
02:54 20.06 С  16 км    8/0 7500 м
[верхняя] 
+21.1  +8.3  44  +22  +22  комфорт  1011.7  1011.0         
03:54 20.06 СЗ  16 км    5/0 7500 м
[верхняя] 
+20.6  +8.9  47  +22  +22  комфорт  1011.7  1011.0         
04:54 20.06 СЗ  16 км    2/0 7500 м
[верхняя] 
+19.4  +8.9  51  +20  +20    1011.6  1011.0         
05:54 20.06 СЗ  16 км    2/0 7500 м
[верхняя] 
+18.9  +9.4  54  +20  +20    1011.5  1010.7         
06:54 20.06 З  16 км    ясно  +17.8  +10.0  60  +18  +18    1011.7  1011.0         
07:54 20.06 СЗ  16 км    2/0 4500 м
[средняя верхняя] 
+17.0  +10.0  63  +17  +17    1011.8  1011.0         
08:54 20.06 З   16 км    2/0 4500 м
[средняя верхняя] 
+17.8  +10.6  63  +18  +18    1012.3  1011.7         
09:54 20.06 СЗ  16 км    2/0 4200 м
[средняя верхняя] 
+19.4  +10.6  57  +21  +22  комфорт  1012.6  1011.7         
10:54 20.06 СЗ  16 км    2/0 6000 м
[средняя] 
+21.1  +10.6  51  +23  +24  комфорт  1013.2  1012.4         
11:54 20.06 нст  16 км    2/0 5400 м
[средняя верхняя] 
+20.6  +11.7  57  +23  +27  комфорт  1012.8  1012.0         
12:54 20.06 ЮВ  16 км    5/0 5400 м
[средняя верхняя] 
+21.7  +10.6  49  +23  +30  комфорт  1012.1  1011.4         
13:54 20.06 ЮВ  16 км    8/0 6000 м
[средняя верхняя] 
+23.0  +11.0  47  +25  +32  комфорт  1011.5  1010.7         
14:54 20.06 ЮВ  16 км    8/2 1500 м
[средняя верхняя] 
+23.0  +11.0  47  +25  +32  комфорт  1010.7  1010.0         
15:54 20.06 ЮВ  16 км    5/2 1500 м
[средняя верхняя] 
+26.0  +12.0  42  +27  +36  жарко  1009.8  1009.0         
16:54 20.06 З   6
{11} 
16 км    8/2 1500 м
[средняя верхняя] 
+28.0  +9.0  30  +28  +31  жарко  1009.0  1008.3  +20.6  +28.9     
17:54 20.06 ЮЗ  16 км    10/2 930 м
[средняя верхняя] 
+28.3  +9.4  31  +28  +31  жарко    1007.6         
18:54 20.06 З  7
{10} 
16 км    10/2 960 м
[средняя верхняя] 
+27.0  +10.0  34  +27  +29  жарко  1008.6  1008.0         
19:54 20.06 З   16 км    10/2 900 м
[средняя верхняя] 
+27.0  +9.0  32  +27  +28  жарко  1008.1  1007.3         
20:54 20.06 З   7
{10} 
16 км    10/2 900 м
[средняя верхняя] 
+27.0  +11.0  37  +28  +29  жарко  1008.0  1007.3         
21:54 20.06 З  4
{8} 
16 км    8/0 2700 м
[средняя верхняя] 
+27.0  +11.0  37  +28  +29  жарко  1007.5  1006.6         
22:54 20.06 З   16 км    8/0 2700 м
[средняя верхняя] 
+26.0  +12.0  42  +27  +28  жарко  1007.5  1006.6  +26.1  +29.4     
23:54 20.06 З   16 км    8/0 2700 м
[средняя верхняя] 
+26.0  +11.0  39  +27  +27  жарко  1007.6  1007.0         
00:54 21.06 ЮЗ  16 км    8/0 2700 м
[средняя верхняя] 
+25.0  +12.0  44  +27  +27  жарко  1008.0  1007.3         
01:54 21.06 ЮЗ  16 км    5/0 2850 м
[средняя верхняя] 
+24.0  +13.0  50  +26  +26  жарко  1007.9  1007.3         
02:54 21.06 ЮЗ  16 км    2/0 4200 м
[средняя верхняя] 
+22.2  +13.9  59  +25  +25  комфорт  1007.9  1007.3         
03:54 21.06 ЮЗ  16 км    2/0 4200 м
[средняя] 
+21.1  +14.4  66  +24  +24  комфорт  1007.5  1006.6         
04:54 21.06 ЮЗ  16 км    2/0 7200 м
[верхняя] 
+20.6  +15.0  70  +24  +24  комфорт  1007.4  1006.6         
05:54 21.06 ЮЗ  16 км    2/0 7200 м
[верхняя] 
+20.6  +15.0  70  +24  +24  комфорт  1007.0  1006.3         

 

Местоположение метеостанции Logan International Airport: широта 42.3606 долгота -71.0106 высота над уровнем моря 6 м.

В архиве по умолчанию представлена погода в Бостоне за последние 1-2 суток. Обновление информации о фактической погоде в базе происходит ежечасно! Архивные данные за месяц целиком и за предыдущие месяцы Вы можете получить, выбрав интересующий диапазон дат из раскрывающегося списка и нажав кнопку "Ввод!".

Внимание! Архив погоды МЕТАР в базе сайта в настоящее время начинается c 1 января 2013 г. Нет смысла пытаться выбрать более раннюю дату.

Внимание! Время в таблицах - всемирное. Для получения местного времени необходимо прибавить поправку, которая в Бостоне равна -5 ч.

Ветер - указаны скорость ветра в м/с и направление, откуда дует ветер: С - северный, СВ - северо-восточный, В - восточный, ЮВ - юго-восточный, Ю - южный, ЮЗ - юго-западный, З - западный, СЗ - северо-западный.
Видимость - горизонтальная дальность видимости в метрах или километрах. При видимости от 1 до 10 км при отсутствии осадков обычно наблюдается дымка, при ухудшении видимости до 1 км и менее - туман. В сухую погоду видимость может ухудшаться дымом, пылью или мглою.
Атмосферные явления - указаны явления, наблюдавшиеся в указанный момент времени.
Облачность - указаны через наклонную черту верхняя и нижняя облачность в баллах и высота нижней границы облаков в метрах. Внимание: облачность, как и прочие метеорологические величины в США измеряются автоматическими метеостанциями. Указанные значения в баллах носят условный характер и показывают процент времени, в течение которого, в среднем, лазерный луч высотомера отражался от облаков обратно.
T - Температура воздуха - температура, измеренная на высоте 2 м над землей.
Td - Температура точки росы - температура, при понижении до которой содержащийся в воздухе водяной пар достигнет насыщения.
f - Относительная влажность воздуха - влажноcть воздуха, измеренная на высоте 2 м над землей.
Te - Эффективная температура - температура, которую ощущает одетый по сезону человек в тени. Характеристика душности погоды. При расчете учитывается влияние влажности воздуха и скорости ветра на теплоощущения человека.
Tes - Эффективная температура на солнце - температура, которую ощущает человек, с поправкой на солнечный нагрев. Характеристика знойности погоды. Зависит от высоты солнца над горизонтом, облачности и скорости ветра. Ночью, в пасмурную погоду, а также при ветре 12 м/с и более поправка равна нулю.
P - Атмосферное давление - приведенное к уровню моря атмосферное давление.
Po - Атмосферное давление - измеренное на уровне метеостанции атмосферное давление.
Tmin - Минимальная температура - минимум температуры воздуха на высоте 2 м над землей.
Tmax - Максимальная температура - максимум температуры воздуха на высоте 2 м над землей.
R - Количество осадков - Количество выпавших осадков за 3 или 6 часов, мм.
SD - Снежный покров - Высота снежного покрова, см.